QPF
0.06 0.07 0.09 0.13 0.18 0.13 0.09 0.09 0.07 0.06 0.05 0.04 0.04 0.04 0.03 0.02 0.02 0.02 0.01 0.01 0.01 0.02 0.02 0.01 0.01 0.01 0.01 0.02 0.02 0.02 0.03 0.03 0.03 0.04 0.05 0.04 0.04 0.05 0.06 0.04 0.04 0.03 0.03
0.05 0.07 0.09 0.10 0.11 0.13 0.12 0.08 0.07 0.08 0.06 0.04 0.03 0.03 0.02 0.01 0.01 0.00 0.00 0.00 0.01 0.01 0.01 0.01 0.01 0.01 0.01 0.01 0.01 0.01 0.01 0.01 0.01 0.02 0.03 0.03 0.02 0.02 0.02 0.04 0.04 0.03 0.04
0.05 0.06 0.06 0.06 0.07 0.08 0.10 0.11 0.08 0.07 0.04 0.02 0.02 0.02 0.01 0.00 0.00 0.01 0.00 0.00 0.01 0.01 0.01 0.01 0.01 0.01 0.01 0.01 0.01 0.01 0.01 0.01 0.01 0.01 0.01 0.02 0.02 0.03 0.02 0.02 0.02 0.03 0.04
0.06 0.06 0.05 0.04 0.05 0.06 0.07 0.10 0.08 0.05 0.03 0.02 0.02 0.02 0.01 0.01 0.01 0.00 0.00 0.00 0.00 0.00 0.01 0.01 0.01 0.01 0.00 0.00 0.00 0.00 0.00 0.00 0.01 0.01 0.01 0.01 0.02 0.02 0.03 0.02 0.02 0.02 0.03
0.03 0.04 0.04 0.04 0.04 0.05 0.07 0.09 0.04 0.03 0.03 0.02 0.03 0.02 0.02 0.01 0.01 0.00 0.00 0.00 0.00 0.00 0.00 0.00 0.00 0.00 0.00 0.00 0.00 0.00 0.00 0.00 0.00 0.01 0.01 0.01 0.01 0.02 0.02 0.02 0.02 0.02 0.01
0.02 0.02 0.03 0.02 0.02 0.04 0.08 0.09 0.05 0.03 0.02 0.03 0.02 0.02 0.02 0.01 0.01 0.00 0.00 0.00 0.00 0.00 0.00 0.00 0.00 0.00 0.00 0.00 0.00 0.00 0.00 0.00 0.00 0.01 0.00 0.01 0.01 0.01 0.01 0.02 0.02 0.02 0.02
0.01 0.01 0.01 0.02 0.02 0.03 0.06 0.08 0.09 0.05 0.03 0.02 0.02 0.02 0.02 0.02 0.01 0.00 0.00 0.00 0.00 0.00 0.00 0.00 0.00 0.00 0.00 0.00 0.00 0.00 0.00 0.00 0.00 0.01 0.01 0.00 0.00 0.01 0.01 0.01 0.01 0.01 0.02
0.01 0.00 0.01 0.01 0.01 0.01 0.02 0.04 0.08 0.05 0.03 0.02 0.02 0.01 0.01 0.01 0.01 0.00 0.00 0.00 0.00 0.00 0.00 0.00 0.00 0.00 0.00 0.00 0.00 0.00 0.00 0.00 0.00 0.00 0.00 0.00 0.00 0.00 0.00 0.01 0.01 0.01 0.01
0.00 0.00 0.01 0.00 0.00 0.01 0.01 0.02 0.03 0.03 0.02 0.02 0.01 0.00 0.00 0.01 0.00 0.00 0.00 0.00 0.00 0.00 0.00 0.00 0.00 0.00 0.00 0.00 0.00 0.00 0.00 0.00 0.00 0.00 0.01 0.01 0.00 0.00 0.00 0.00 0.01 0.01 0.01
0.00 0.00 0.00 0.00 0.00 0.00 0.01 0.01 0.01 0.01 0.01 0.00 0.00 0.00 0.00 0.00 0.00 0.00 0.00 0.00 0.00 0.00 0.00 0.00 0.00 0.00 0.00 0.00 0.00 0.00 0.00 0.00 0.00 0.00 0.01 0.01 0.00 0.00 0.01 0.01 0.01 0.01 0.02
0.00 0.00 0.00 0.00 0.00 0.00 0.00 0.00 0.00 0.00 0.00 0.00 0.00 0.00 0.00 0.00 0.00 0.00 0.00 0.00 0.00 0.00 0.00 0.00 0.00 0.00 0.00 0.00 0.00 0.00 0.00 0.00 0.00 0.00 0.00 0.00 0.00 0.00 0.00 0.01 0.01 0.01 0.01
0.00 0.00 0.00 0.00 0.00 0.00 0.00 0.00 0.00 0.00 0.00 0.00 0.00 0.00 0.00 0.00 0.00 0.00 0.00 0.00 0.00 0.00 0.00 0.00 0.00 0.00 0.00 0.00 0.00 0.00 0.00 0.00 0.00 0.00 0.00 0.00 0.00 0.01 0.00 0.00 0.01 0.01 0.01
0.00 0.00 0.00 0.00 0.00 0.00 0.00 0.00 0.00 0.00 0.00 0.00 0.00 0.00 0.00 0.00 0.00 0.00 0.00 0.00 0.00 0.00 0.00 0.00 0.00 0.00 0.00 0.00 0.00 0.00 0.00 0.00 0.00 0.00 0.00 0.00 0.00 0.01 0.01 0.01 0.01 0.00 0.00
0.00 0.00 0.00 0.00 0.00 0.00 0.00 0.00 0.00 0.00 0.00 0.00 0.00 0.00 0.00 0.00 0.00 0.00 0.00 0.00 0.00 0.00 0.00 0.00 0.00 0.00 0.00 0.00 0.00 0.00 0.00 0.00 0.00 0.00 0.00 0.00 0.00 0.01 0.01 0.01 0.01 0.01 0.01
0.00 0.00 0.00 0.00 0.00 0.00 0.00 0.00 0.00 0.00 0.00 0.00 0.00 0.00 0.00 0.00 0.00 0.00 0.00 0.00 0.00 0.00 0.00 0.00 0.00 0.00 0.00 0.00 0.00 0.00 0.00 0.00 0.00 0.00 0.00 0.00 0.00 0.00 0.00 0.00 0.01 0.01 0.01
0.00 0.00 0.00 0.00 0.00 0.00 0.00 0.00 0.00 0.00 0.00 0.00 0.00 0.01 0.00 0.00 0.00 0.00 0.00 0.00 0.00 0.00 0.00 0.00 0.00 0.00 0.00 0.00 0.00 0.00 0.00 0.00 0.00 0.00 0.00 0.00 0.00 0.00 0.00 0.00 0.00 0.01 0.01
0.00 0.00 0.00 0.00 0.00 0.00 0.00 0.00 0.00 0.00 0.00 0.00 0.00 0.00 0.00 0.00 0.00 0.00 0.00 0.00 0.00 0.00 0.00 0.00 0.00 0.00 0.00 0.00 0.00 0.00 0.00 0.00 0.00 0.01 0.01 0.00 0.00 0.00 0.00 0.00 0.00 0.00 0.00
0.00 0.00 0.00 0.00 0.00 0.00 0.00 0.00 0.01 0.01 0.01 0.00 0.00 0.00 0.00 0.00 0.00 0.00 0.00 0.00 0.00 0.00 0.00 0.00 0.00 0.00 0.00 0.00 0.00 0.00 0.00 0.00 0.00 0.00 0.01 0.00 0.00 0.00 0.00 0.00 0.01 0.01 0.01
0.00 0.00 0.00 0.00 0.00 0.00 0.00 0.00 0.00 0.00 0.00 0.00 0.00 0.00 0.00 0.00 0.00 0.00 0.00 0.00 0.00 0.00 0.00 0.00 0.00 0.00 0.00 0.00 0.00 0.00 0.00 0.00 0.00 0.00 0.00 0.00 0.00 0.00 0.00 0.00 0.00 0.01 0.01
0.00 0.00 0.00 0.00 0.00 0.00 0.00 0.00 0.00 0.00 0.00 0.00 0.00 0.00 0.00 0.00 0.00 0.00 0.00 0.00 0.00 0.00 0.00 0.00 0.00 0.00 0.00 0.00 0.00 0.00 0.00 0.00 0.00 0.01 0.01 0.00 0.00 0.00 0.00 0.00 0.01 0.01 0.01
0.00 0.00 0.00 0.00 0.00 0.00 0.00 0.00 0.00 0.01 0.01 0.01 0.00 0.00 0.00 0.00 0.00 0.00 0.00 0.00 0.00 0.00 0.00 0.00 0.00 0.00 0.00 0.00 0.00 0.00 0.00 0.00 0.01 0.01 0.01 0.01 0.00 0.00 0.00 0.00 0.00 0.01 0.01
0.00 0.00 0.00 0.00 0.00 0.01 0.01 0.00 0.00 0.00 0.00 0.00 0.00 0.00 0.00 0.00 0.00 0.00 0.00 0.00 0.00 0.00 0.00 0.00 0.00 0.00 0.00 0.00 0.00 0.00 0.00 0.00 0.00 0.00 0.01 0.01 0.00 0.00 0.00 0.00 0.00 0.00 0.00
0.00 0.01 0.01 0.02 0.01 0.01 0.01 0.01 0.00 0.00 0.00 0.00 0.00 0.00 0.00 0.00 0.00 0.00 0.00 0.00 0.00 0.00 0.00 0.00 0.00 0.00 0.00 0.00 0.00 0.00 0.00 0.00 0.00 0.00 0.00 0.00 0.00 0.00 0.00 0.00 0.00 0.00 0.00
0.01 0.01 0.01 0.01 0.01 0.00 0.00 0.01 0.01 0.01 0.01 0.01 0.01 0.01 0.01 0.01 0.00 0.00 0.00 0.00 0.00 0.00 0.00 0.00 0.00 0.00 0.00 0.00 0.00 0.00 0.00 0.00 0.00 0.00 0.00 0.00 0.00 0.00 0.00 0.00 0.01 0.01 0.01
0.01 0.01 0.01 0.01 0.01 0.01 0.01 0.01 0.01 0.01 0.01 0.01 0.01 0.01 0.01 0.01 0.00 0.00 0.00 0.00 0.00 0.00 0.00 0.00 0.00 0.00 0.00 0.00 0.00 0.00 0.00 0.00 0.00 0.00 0.00 0.00 0.00 0.00 0.01 0.01 0.02 0.02 0.01
0.01 0.01 0.01 0.01 0.01 0.01 0.00 0.01 0.01 0.01 0.01 0.00 0.00 0.01 0.01 0.00 0.00 0.00 0.00 0.00 0.00 0.00 0.00 0.00 0.00 0.00 0.00 0.00 0.00 0.00 0.00 0.00 0.00 0.00 0.00 0.00 0.01 0.01 0.01 0.01 0.01 0.02 0.02
MSLP
1015.15 1015.35 1015.51 1015.64 1015.72 1015.79 1015.87 1015.98 1016.15 1016.37 1016.63 1016.91 1017.19 1017.44 1017.64 1017.80 1017.91 1018.00 1018.10 1018.20 1018.32 1018.45 1018.57 1018.68 1018.74 1018.74 1018.69 1018.59 1018.47 1018.36 1018.27 1018.23 1018.24 1018.31 1018.42 1018.54 1018.65 1018.74 1018.78 1018.79 1018.77 1018.74 1018.72
1015.00 1015.27 1015.50 1015.69 1015.83 1015.95 1016.07 1016.22 1016.41 1016.66 1016.94 1017.23 1017.50 1017.72 1017.90 1018.01 1018.08 1018.14 1018.21 1018.31 1018.45 1018.61 1018.79 1018.95 1019.07 1019.11 1019.08 1018.98 1018.83 1018.66 1018.50 1018.39 1018.33 1018.33 1018.38 1018.46 1018.55 1018.62 1018.65 1018.65 1018.61 1018.56 1018.52
1014.85 1015.20 1015.52 1015.77 1015.97 1016.14 1016.30 1016.49 1016.73 1017.00 1017.30 1017.61 1017.88 1018.09 1018.24 1018.32 1018.36 1018.38 1018.42 1018.51 1018.65 1018.83 1019.05 1019.25 1019.41 1019.50 1019.50 1019.40 1019.24 1019.04 1018.84 1018.67 1018.55 1018.50 1018.50 1018.53 1018.58 1018.62 1018.63 1018.61 1018.55 1018.47 1018.39
1014.72 1015.15 1015.53 1015.85 1016.11 1016.32 1016.53 1016.76 1017.04 1017.35 1017.68 1018.01 1018.30 1018.51 1018.65 1018.71 1018.72 1018.71 1018.72 1018.78 1018.91 1019.10 1019.33 1019.56 1019.75 1019.87 1019.89 1019.82 1019.67 1019.47 1019.25 1019.05 1018.90 1018.81 1018.77 1018.77 1018.79 1018.79 1018.77 1018.70 1018.60 1018.48 1018.35
1014.58 1015.08 1015.52 1015.88 1016.18 1016.44 1016.69 1016.96 1017.28 1017.63 1018.01 1018.37 1018.69 1018.93 1019.07 1019.13 1019.12 1019.09 1019.07 1019.10 1019.20 1019.37 1019.59 1019.83 1020.03 1020.17 1020.23 1020.19 1020.06 1019.89 1019.68 1019.49 1019.34 1019.24 1019.18 1019.15 1019.14 1019.10 1019.04 1018.93 1018.78 1018.61 1018.42
1014.41 1014.94 1015.41 1015.81 1016.14 1016.43 1016.72 1017.03 1017.39 1017.79 1018.21 1018.63 1018.99 1019.26 1019.44 1019.51 1019.51 1019.46 1019.42 1019.42 1019.49 1019.63 1019.82 1020.04 1020.24 1020.39 1020.47 1020.46 1020.38 1020.24 1020.08 1019.92 1019.80 1019.71 1019.65 1019.61 1019.57 1019.51 1019.41 1019.25 1019.05 1018.82 1018.58
1014.14 1014.69 1015.18 1015.59 1015.94 1016.26 1016.58 1016.93 1017.33 1017.78 1018.26 1018.73 1019.14 1019.47 1019.69 1019.80 1019.81 1019.78 1019.73 1019.70 1019.74 1019.83 1019.99 1020.17 1020.35 1020.50 1020.59 1020.61 1020.58 1020.49 1020.39 1020.29 1020.20 1020.14 1020.11 1020.07 1020.02 1019.94 1019.80 1019.61 1019.36 1019.08 1018.78
1013.76 1014.30 1014.79 1015.21 1015.57 1015.91 1016.26 1016.65 1017.10 1017.60 1018.13 1018.66 1019.14 1019.52 1019.80 1019.95 1020.00 1019.98 1019.94 1019.90 1019.91 1019.96 1020.07 1020.22 1020.37 1020.50 1020.60 1020.64 1020.65 1020.62 1020.57 1020.53 1020.49 1020.48 1020.47 1020.45 1020.40 1020.30 1020.14 1019.92 1019.64 1019.33 1018.99
1013.24 1013.76 1014.24 1014.67 1015.05 1015.42 1015.80 1016.23 1016.73 1017.28 1017.87 1018.45 1018.98 1019.42 1019.75 1019.96 1020.05 1020.06 1020.04 1020.00 1019.99 1020.02 1020.09 1020.20 1020.31 1020.43 1020.51 1020.57 1020.60 1020.61 1020.61 1020.62 1020.63 1020.66 1020.67 1020.67 1020.63 1020.53 1020.36 1020.13 1019.84 1019.50 1019.14
1012.59 1013.10 1013.59 1014.03 1014.44 1014.84 1015.27 1015.74 1016.29 1016.88 1017.51 1018.14 1018.71 1019.20 1019.58 1019.83 1019.97 1020.02 1020.02 1020.00 1019.99 1020.01 1020.06 1020.13 1020.22 1020.30 1020.37 1020.43 1020.47 1020.49 1020.53 1020.56 1020.61 1020.66 1020.70 1020.72 1020.68 1020.59 1020.43 1020.20 1019.91 1019.57 1019.22
1011.85 1012.36 1012.86 1013.32 1013.77 1014.23 1014.71 1015.24 1015.83 1016.47 1017.13 1017.78 1018.39 1018.90 1019.31 1019.60 1019.78 1019.87 1019.91 1019.92 1019.92 1019.94 1019.98 1020.04 1020.10 1020.16 1020.21 1020.25 1020.28 1020.31 1020.34 1020.39 1020.45 1020.51 1020.56 1020.58 1020.56 1020.48 1020.33 1020.12 1019.85 1019.54 1019.20
1011.06 1011.58 1012.11 1012.62 1013.12 1013.64 1014.19 1014.78 1015.42 1016.09 1016.77 1017.43 1018.04 1018.57 1018.99 1019.30 1019.51 1019.64 1019.72 1019.76 1019.80 1019.84 1019.89 1019.94 1019.99 1020.03 1020.06 1020.07 1020.07 1020.08 1020.10 1020.13 1020.18 1020.24 1020.29 1020.32 1020.31 1020.25 1020.12 1019.94 1019.70 1019.42 1019.12
1010.26 1010.81 1011.37 1011.93 1012.51 1013.10 1013.71 1014.36 1015.04 1015.74 1016.43 1017.10 1017.70 1018.21 1018.63 1018.95 1019.19 1019.35 1019.47 1019.56 1019.63 1019.71 1019.78 1019.84 1019.88 1019.91 1019.91 1019.90 1019.87 1019.85 1019.83 1019.84 1019.87 1019.91 1019.96 1019.99 1019.99 1019.94 1019.84 1019.69 1019.49 1019.25 1018.98
1009.48 1010.06 1010.66 1011.29 1011.93 1012.59 1013.27 1013.98 1014.70 1015.42 1016.12 1016.77 1017.35 1017.85 1018.26 1018.57 1018.82 1019.01 1019.16 1019.29 1019.41 1019.52 1019.62 1019.70 1019.75 1019.77 1019.76 1019.72 1019.66 1019.60 1019.56 1019.54 1019.54 1019.57 1019.60 1019.63 1019.64 1019.62 1019.55 1019.43 1019.26 1019.06 1018.83
1008.74 1009.35 1009.99 1010.66 1011.36 1012.08 1012.83 1013.58 1014.34 1015.08 1015.78 1016.42 1016.98 1017.46 1017.85 1018.16 1018.41 1018.62 1018.80 1018.97 1019.13 1019.28 1019.41 1019.51 1019.57 1019.59 1019.56 1019.50 1019.42 1019.34 1019.27 1019.22 1019.21 1019.23 1019.26 1019.30 1019.32 1019.32 1019.27 1019.18 1019.05 1018.87 1018.67
1008.06 1008.68 1009.34 1010.05 1010.79 1011.56 1012.35 1013.15 1013.94 1014.70 1015.40 1016.03 1016.58 1017.04 1017.42 1017.72 1017.98 1018.19 1018.40 1018.59 1018.78 1018.95 1019.11 1019.22 1019.30 1019.32 1019.29 1019.22 1019.13 1019.03 1018.95 1018.90 1018.88 1018.90 1018.94 1018.99 1019.03 1019.04 1019.02 1018.95 1018.83 1018.67 1018.47
1007.44 1008.06 1008.72 1009.44 1010.20 1011.00 1011.83 1012.66 1013.47 1014.24 1014.96 1015.59 1016.13 1016.59 1016.96 1017.26 1017.51 1017.73 1017.94 1018.15 1018.35 1018.54 1018.70 1018.83 1018.91 1018.93 1018.91 1018.84 1018.75 1018.66 1018.59 1018.54 1018.54 1018.57 1018.62 1018.68 1018.74 1018.77 1018.75 1018.69 1018.58 1018.41 1018.21
1006.91 1007.49 1008.14 1008.85 1009.61 1010.42 1011.26 1012.11 1012.94 1013.73 1014.46 1015.10 1015.65 1016.11 1016.48 1016.78 1017.03 1017.25 1017.46 1017.66 1017.86 1018.04 1018.20 1018.33 1018.40 1018.43 1018.42 1018.36 1018.29 1018.22 1018.16 1018.14 1018.16 1018.20 1018.28 1018.35 1018.42 1018.45 1018.44 1018.37 1018.24 1018.06 1017.83
1006.45 1007.00 1007.61 1008.30 1009.04 1009.84 1010.68 1011.54 1012.38 1013.19 1013.94 1014.59 1015.16 1015.62 1016.00 1016.30 1016.54 1016.75 1016.95 1017.13 1017.31 1017.47 1017.61 1017.73 1017.80 1017.83 1017.82 1017.79 1017.74 1017.70 1017.67 1017.68 1017.72 1017.79 1017.87 1017.96 1018.02 1018.05 1018.01 1017.92 1017.77 1017.55 1017.29
1006.09 1006.59 1007.16 1007.81 1008.53 1009.31 1010.14 1010.99 1011.84 1012.66 1013.42 1014.09 1014.67 1015.15 1015.53 1015.83 1016.06 1016.26 1016.42 1016.58 1016.72 1016.86 1016.97 1017.07 1017.13 1017.16 1017.17 1017.16 1017.14 1017.12 1017.13 1017.16 1017.22 1017.30 1017.38 1017.46 1017.50 1017.50 1017.44 1017.31 1017.12 1016.87 1016.57
1005.83 1006.28 1006.81 1007.41 1008.10 1008.85 1009.66 1010.50 1011.34 1012.16 1012.92 1013.61 1014.20 1014.68 1015.07 1015.36 1015.58 1015.75 1015.89 1016.01 1016.11 1016.21 1016.30 1016.37 1016.43 1016.46 1016.48 1016.49 1016.50 1016.52 1016.55 1016.59 1016.66 1016.73 1016.80 1016.84 1016.85 1016.81 1016.70 1016.53 1016.29 1016.00 1015.68
1005.65 1006.06 1006.55 1007.11 1007.76 1008.47 1009.25 1010.07 1010.89 1011.70 1012.46 1013.14 1013.73 1014.21 1014.59 1014.88 1015.08 1015.23 1015.33 1015.41 1015.48 1015.54 1015.60 1015.66 1015.71 1015.76 1015.80 1015.83 1015.87 1015.90 1015.94 1015.99 1016.04 1016.08 1016.11 1016.11 1016.06 1015.96 1015.80 1015.58 1015.30 1014.99 1014.64
1005.54 1005.92 1006.37 1006.90 1007.50 1008.18 1008.92 1009.69 1010.49 1011.27 1012.01 1012.67 1013.24 1013.72 1014.08 1014.35 1014.53 1014.65 1014.73 1014.78 1014.82 1014.86 1014.90 1014.95 1015.01 1015.07 1015.13 1015.19 1015.24 1015.29 1015.33 1015.36 1015.37 1015.37 1015.33 1015.26 1015.14 1014.98 1014.76 1014.50 1014.19 1013.86 1013.52
1005.49 1005.85 1006.26 1006.75 1007.31 1007.94 1008.63 1009.36 1010.10 1010.84 1011.54 1012.17 1012.71 1013.16 1013.51 1013.75 1013.92 1014.01 1014.07 1014.10 1014.12 1014.14 1014.18 1014.24 1014.31 1014.39 1014.47 1014.55 1014.61 1014.66 1014.69 1014.69 1014.65 1014.58 1014.48 1014.32 1014.13 1013.90 1013.63 1013.33 1013.01 1012.68 1012.36
1005.50 1005.83 1006.21 1006.66 1007.17 1007.74 1008.37 1009.03 1009.72 1010.39 1011.03 1011.62 1012.12 1012.53 1012.85 1013.07 1013.22 1013.30 1013.34 1013.35 1013.37 1013.39 1013.44 1013.51 1013.59 1013.69 1013.80 1013.89 1013.96 1014.00 1014.00 1013.96 1013.87 1013.73 1013.54 1013.31 1013.05 1012.75 1012.44 1012.12 1011.80 1011.49 1011.20
1005.57 1005.87 1006.22 1006.62 1007.08 1007.59 1008.14 1008.73 1009.34 1009.94 1010.51 1011.03 1011.48 1011.85 1012.13 1012.33 1012.45 1012.52 1012.55 1012.56 1012.58 1012.61 1012.67 1012.75 1012.85 1012.97 1013.08 1013.18 1013.25 1013.27 1013.24 1013.16 1013.01 1012.80 1012.54 1012.24 1011.91 1011.57 1011.22 1010.89 1010.59 1010.31 1010.06
Thickness
5735 5735 5734 5735 5734 5733 5731 5730 5729 5728 5728 5728 5728 5725 5724 5723 5723 5720 5716 5715 5713 5711 5710 5710 5706 5706 5705 5703 5703 5703 5703 5703 5702 5703 5703 5706 5707 5706 5704 5704 5704 5705 5704
5729 5729 5730 5731 5731 5730 5729 5728 5727 5727 5726 5726 5726 5724 5723 5723 5721 5718 5714 5713 5711 5709 5709 5706 5706 5703 5701 5699 5698 5697 5699 5700 5699 5698 5697 5698 5701 5700 5703 5701 5700 5700 5701
5729 5728 5729 5729 5730 5729 5728 5729 5726 5725 5725 5725 5724 5722 5720 5720 5718 5715 5713 5711 5709 5707 5705 5704 5703 5700 5700 5698 5695 5694 5693 5695 5696 5694 5692 5691 5691 5694 5698 5696 5696 5695 5695
5733 5731 5730 5730 5730 5730 5729 5726 5724 5724 5723 5723 5723 5722 5720 5718 5716 5714 5712 5709 5707 5706 5704 5701 5699 5698 5698 5695 5694 5693 5691 5689 5690 5690 5688 5686 5685 5683 5687 5691 5692 5691 5690
5738 5734 5733 5732 5732 5730 5728 5725 5723 5722 5722 5722 5721 5720 5720 5718 5716 5713 5709 5707 5706 5703 5702 5700 5697 5695 5695 5692 5689 5688 5686 5686 5685 5685 5684 5683 5681 5680 5678 5679 5683 5686 5688
5742 5738 5736 5733 5731 5729 5727 5725 5721 5720 5721 5721 5720 5718 5716 5714 5712 5710 5708 5707 5706 5703 5700 5698 5695 5693 5692 5688 5686 5684 5683 5681 5679 5678 5679 5678 5676 5676 5675 5673 5674 5676 5680
5744 5740 5736 5732 5730 5728 5727 5725 5722 5720 5720 5719 5718 5717 5715 5712 5710 5709 5707 5706 5706 5703 5697 5697 5692 5691 5687 5685 5683 5680 5679 5677 5674 5672 5673 5673 5672 5671 5669 5668 5668 5669 5672
5748 5744 5740 5737 5734 5732 5729 5727 5723 5721 5720 5718 5717 5715 5713 5714 5712 5708 5708 5706 5705 5702 5696 5693 5690 5688 5685 5683 5679 5679 5676 5672 5670 5669 5666 5666 5667 5666 5664 5662 5660 5660 5664
5751 5748 5745 5742 5739 5735 5732 5730 5725 5722 5720 5718 5716 5713 5712 5711 5710 5706 5705 5704 5700 5699 5694 5691 5688 5685 5682 5679 5676 5676 5671 5669 5667 5666 5664 5661 5662 5660 5659 5657 5656 5652 5652
5755 5752 5748 5745 5742 5739 5735 5732 5728 5724 5722 5719 5716 5714 5712 5709 5707 5705 5703 5700 5697 5694 5692 5689 5686 5683 5680 5676 5673 5672 5669 5665 5663 5660 5657 5654 5656 5655 5653 5651 5650 5648 5646
5759 5755 5752 5748 5745 5741 5737 5732 5729 5725 5722 5720 5717 5714 5712 5709 5706 5703 5701 5698 5695 5692 5689 5686 5683 5680 5677 5674 5670 5669 5665 5661 5659 5656 5654 5650 5648 5648 5647 5646 5644 5643 5641
5763 5759 5755 5750 5746 5742 5739 5735 5731 5728 5724 5721 5717 5714 5711 5708 5706 5703 5700 5696 5693 5690 5687 5684 5680 5678 5675 5671 5668 5664 5662 5658 5655 5652 5649 5646 5645 5641 5639 5638 5637 5636 5634
5764 5761 5756 5751 5747 5744 5740 5737 5734 5730 5727 5723 5718 5714 5711 5708 5705 5702 5698 5695 5691 5688 5685 5681 5678 5675 5672 5668 5665 5661 5658 5655 5651 5648 5645 5642 5639 5635 5635 5631 5631 5631 5630
5763 5760 5755 5751 5749 5746 5742 5739 5735 5732 5728 5723 5719 5715 5711 5707 5704 5701 5697 5693 5689 5686 5682 5679 5676 5673 5669 5666 5662 5658 5654 5651 5648 5644 5641 5638 5635 5631 5628 5626 5623 5622 5621
5761 5759 5756 5753 5750 5746 5743 5740 5736 5732 5728 5722 5718 5714 5711 5707 5703 5699 5695 5691 5688 5685 5680 5677 5674 5670 5667 5664 5660 5655 5652 5648 5644 5641 5638 5635 5631 5626 5621 5620 5619 5616 5614
5764 5762 5758 5754 5750 5747 5744 5740 5736 5732 5727 5722 5718 5714 5710 5706 5701 5697 5693 5689 5685 5682 5678 5674 5671 5668 5666 5659 5652 5647 5647 5645 5641 5638 5635 5632 5628 5623 5615 5611 5608 5604 5604
5768 5764 5761 5757 5753 5750 5746 5741 5737 5732 5726 5722 5718 5714 5709 5704 5700 5696 5692 5687 5683 5679 5675 5672 5669 5665 5661 5654 5647 5642 5639 5640 5638 5635 5631 5629 5628 5620 5617 5612 5605 5601 5598
5773 5769 5765 5761 5757 5753 5747 5742 5737 5731 5725 5721 5717 5713 5708 5703 5699 5694 5690 5685 5681 5677 5673 5670 5667 5662 5659 5651 5644 5639 5636 5637 5635 5632 5628 5624 5620 5618 5611 5607 5605 5603 5601
5778 5775 5770 5766 5759 5753 5748 5741 5735 5730 5724 5720 5716 5712 5707 5702 5697 5692 5687 5683 5678 5674 5671 5668 5664 5659 5656 5649 5642 5634 5636 5636 5633 5629 5626 5621 5617 5611 5603 5599 5599 5598 5597
5778 5774 5770 5765 5757 5752 5746 5739 5733 5728 5724 5721 5716 5711 5705 5700 5695 5690 5685 5681 5676 5672 5668 5666 5662 5657 5653 5647 5639 5632 5633 5633 5631 5628 5624 5617 5611 5606 5598 5595 5594 5593 5592
5772 5770 5765 5760 5754 5749 5742 5735 5732 5727 5725 5720 5714 5708 5703 5697 5693 5687 5682 5678 5673 5669 5665 5662 5659 5655 5650 5645 5637 5629 5627 5628 5626 5623 5621 5618 5608 5600 5593 5588 5587 5587 5584
5766 5764 5758 5754 5750 5745 5739 5733 5729 5728 5723 5717 5710 5704 5699 5695 5691 5684 5679 5675 5670 5665 5661 5657 5654 5653 5649 5642 5636 5628 5621 5617 5617 5616 5615 5612 5602 5595 5589 5585 5583 5579 5573
5760 5758 5753 5748 5744 5740 5736 5730 5727 5723 5717 5711 5705 5700 5695 5690 5686 5681 5676 5671 5666 5663 5661 5657 5654 5651 5649 5643 5633 5626 5619 5613 5609 5611 5608 5601 5595 5589 5587 5584 5578 5573 5572
5752 5750 5747 5742 5736 5734 5730 5727 5723 5718 5711 5705 5699 5695 5690 5686 5681 5677 5674 5670 5666 5661 5658 5654 5650 5647 5644 5640 5634 5628 5621 5611 5607 5605 5602 5595 5590 5585 5582 5581 5579 5575 5573
5742 5741 5738 5734 5730 5727 5723 5720 5716 5711 5705 5699 5695 5691 5687 5683 5678 5674 5671 5667 5662 5658 5651 5649 5645 5640 5637 5631 5621 5615 5614 5610 5605 5597 5596 5596 5594 5591 5587 5584 5581 5576 5572
5733 5731 5729 5726 5722 5719 5715 5713 5709 5704 5698 5693 5689 5687 5683 5678 5674 5670 5665 5659 5653 5648 5642 5636 5631 5631 5625 5618 5611 5605 5599 5593 5587 5585 5591 5591 5590 5587 5584 5580 5577 5573 5569